Location: Gro� Glienicke
(52.4675°N, 13.1079°E)
Time: 03:01:00
(UTC+00:00)

Cosmos 1745 Rocket - Pass Details

Date: 06 July 2020
Orbit: 954 x 997 km, 83.0° (Epoch: 04 August)

Event Time Altitude Azimuth Distance (km) Brightness Sun altitude
Rises 20:05:24 0° 192° (SSW) 3,641 6.6 -4.6°
Reaches altitude 10° 20:07:53 10° 194° (SSW) 2,705 6.0 -4.9°
Maximum altitude 20:14:06 79° 281° (W) 1,000 4.2 -5.5°
Drops below altitude 10° 20:20:26 10° 9° (N) 2,754 7.0 -6.1°
Sets 20:22:59 0° 11° (N) 3,712 7.7 -6.4°
